Location: Newark
(20.0000°S, 47.0000°E)
Time: 17:15:57
(UTC+00:00)

N. Korean satellite - Pass Details

Date: 19 March 2019
Orbit: 457 x 508 km, 97.2° (Epoch: 18 April)

Event Time Altitude Azimuth Distance (km) Brightness Sun altitude
Rises 01:29:29 0° 54° (NE) 2,565 10.9 -20.9°
Reaches altitude 10° 01:33:02 10° 92° (E) 1,707 10.5 -20.1°
Maximum altitude 01:34:00 11° 107° (ESE) 1,658 10.4 -19.9°
Drops below altitude 10° 01:34:59 10° 123° (ESE) 1,718 10.3 -19.7°
Sets 01:38:36 0° 160° (SSE) 2,623 10.7 -18.8°
